JES3048 SAZS-SABE

Flight info

Callsign JES3048
Flight time 1h 45m
Altitude 37000
Route LIMA2C LIMAY UW26 EGUNO UZ109 ISMIL UT655 ASADA ASAD8Q
Aircraft A320/M-SDE3FGHIRWY/LB1

Departure

Time 2026-04-21 01:31
Airport Teniente Luis Candelaria International Airport (SAZS)

Arrival

Time 2026-04-21 03:16
Airport Aeroparque Jorge Newbery (SABE)
Time Latitude Longitude Altitude Speed Heading
2026-04-21 01:06 -41.14697 -71.16156 2749 ft 0 kts 58°
2026-04-21 01:21 -41.14702 -71.16166 2750 ft 4 kts 58°
2026-04-21 01:22 -41.14717 -71.16195 2750 ft 4 kts 47°
2026-04-21 01:22 -41.14737 -71.16217 2750 ft 4 kts 30°
2026-04-21 01:22 -41.14761 -71.16235 2751 ft 4 kts 33°
2026-04-21 01:22 -41.14780 -71.16256 2751 ft 4 kts 68°
2026-04-21 01:23 -41.14782 -71.16271 2753 ft 0 kts 104°
2026-04-21 01:26 -41.14789 -71.16238 2749 ft 7 kts 104°
2026-04-21 01:26 -41.14813 -71.16163 2751 ft 11 kts 115°
2026-04-21 01:27 -41.14846 -71.16067 2749 ft 13 kts 114°
2026-04-21 01:27 -41.14887 -71.15951 2751 ft 15 kts 115°
2026-04-21 01:27 -41.14934 -71.15818 2749 ft 17 kts 115°
2026-04-21 01:27 -41.14987 -71.15666 2749 ft 19 kts 115°
2026-04-21 01:28 -41.15046 -71.15499 2749 ft 21 kts 115°
2026-04-21 01:28 -41.15110 -71.15316 2751 ft 23 kts 115°
2026-04-21 01:28 -41.15179 -71.15120 2749 ft 24 kts 113°
2026-04-21 01:28 -41.15243 -71.14931 2751 ft 23 kts 115°
2026-04-21 01:29 -41.15312 -71.14734 2751 ft 24 kts 115°
2026-04-21 01:29 -41.15367 -71.14578 2749 ft 18 kts 114°
2026-04-21 01:29 -41.15415 -71.14471 2749 ft 12 kts 149°
2026-04-21 01:29 -41.15500 -71.14504 2749 ft 14 kts 205°
2026-04-21 01:30 -41.15517 -71.14613 2749 ft 19 kts 293°
2026-04-21 01:30 -41.15382 -71.14994 2755 ft 82 kts 295°
2026-04-21 01:30 -41.15052 -71.15944 2753 ft 142 kts 295°
2026-04-21 01:30 -41.14601 -71.17280 3063 ft 165 kts 292°
2026-04-21 01:31 -41.14109 -71.18716 3644 ft 177 kts 292°
2026-04-21 01:31 -41.13588 -71.20262 4195 ft 191 kts 292°
2026-04-21 01:31 -41.13028 -71.21960 4537 ft 211 kts 293°
2026-04-21 01:31 -41.12404 -71.23817 4905 ft 232 kts 294°
2026-04-21 01:32 -41.11724 -71.25814 5584 ft 240 kts 294°
2026-04-21 01:32 -41.11030 -71.27843 6474 ft 243 kts 294°
2026-04-21 01:32 -41.10331 -71.29889 7330 ft 245 kts 293°
2026-04-21 01:32 -41.09623 -71.31966 8140 ft 249 kts 293°
2026-04-21 01:33 -41.08893 -71.34076 8930 ft 254 kts 297°
2026-04-21 01:33 -41.07795 -71.35895 9671 ft 262 kts 321°
2026-04-21 01:33 -41.06134 -71.36918 10394 ft 270 kts 349°
2026-04-21 01:33 -41.04256 -71.36767 11078 ft 276 kts 19°
2026-04-21 01:34 -41.02627 -71.35412 11769 ft 280 kts 49°
2026-04-21 01:34 -41.01687 -71.33206 12461 ft 281 kts 78°
2026-04-21 01:34 -41.01481 -71.30631 13190 ft 282 kts 89°
2026-04-21 01:34 -41.01370 -71.28026 13924 ft 285 kts 86°
2026-04-21 01:35 -41.00946 -71.25444 14575 ft 290 kts 71°
2026-04-21 01:35 -41.00069 -71.23027 15244 ft 293 kts 63°
2026-04-21 01:35 -40.99084 -71.20654 15907 ft 295 kts 63°
2026-04-21 01:35 -40.98097 -71.18270 16572 ft 297 kts 64°
2026-04-21 01:36 -40.97099 -71.15862 17241 ft 299 kts 64°
2026-04-21 01:36 -40.96098 -71.13446 17884 ft 301 kts 64°
2026-04-21 01:36 -40.95088 -71.11011 18529 ft 303 kts 65°
2026-04-21 01:36 -40.94058 -71.08524 18820 ft 317 kts 65°
2026-04-21 01:37 -40.92972 -71.05885 18937 ft 336 kts 65°
2026-04-21 01:37 -40.91823 -71.03099 19064 ft 354 kts 64°
2026-04-21 01:37 -40.90615 -71.00179 19178 ft 370 kts 64°
2026-04-21 01:37 -40.89355 -70.97150 19452 ft 381 kts 64°
2026-04-21 01:38 -40.88065 -70.94057 19905 ft 385 kts 64°
2026-04-21 01:38 -40.86763 -70.90940 20410 ft 389 kts 64°
2026-04-21 01:38 -40.85448 -70.87796 20910 ft 393 kts 64°
2026-04-21 01:38 -40.84125 -70.84626 21417 ft 395 kts 64°
2026-04-21 01:39 -40.82791 -70.81440 21908 ft 398 kts 65°
2026-04-21 01:39 -40.81464 -70.78270 22370 ft 401 kts 65°
2026-04-21 01:39 -40.80107 -70.75032 22833 ft 404 kts 65°
2026-04-21 01:39 -40.78738 -70.71773 23307 ft 407 kts 65°
2026-04-21 01:40 -40.77358 -70.68496 23763 ft 410 kts 65°
2026-04-21 01:40 -40.75970 -70.65197 24135 ft 413 kts 65°
2026-04-21 01:40 -40.74456 -70.61940 24506 ft 420 kts 58°
2026-04-21 01:40 -40.72553 -70.58978 24868 ft 426 kts 51°
2026-04-21 01:41 -40.70560 -70.56132 25219 ft 429 kts 51°
2026-04-21 01:41 -40.68527 -70.53240 25586 ft 432 kts 51°
2026-04-21 01:41 -40.66478 -70.50329 25999 ft 434 kts 51°
2026-04-21 01:41 -40.64422 -70.47406 26360 ft 436 kts 51°
2026-04-21 01:42 -40.62349 -70.44462 26709 ft 439 kts 51°
2026-04-21 01:42 -40.60288 -70.41479 27049 ft 441 kts 54°
2026-04-21 01:42 -40.58426 -70.38276 27356 ft 442 kts 57°
2026-04-21 01:42 -40.56574 -70.35023 27686 ft 445 kts 57°
2026-04-21 01:43 -40.54715 -70.31756 28018 ft 448 kts 57°
2026-04-21 01:43 -40.52838 -70.28465 28348 ft 451 kts 57°
2026-04-21 01:43 -40.51586 -70.26272 28571 ft 453 kts 57°
2026-04-21 01:43 -40.49688 -70.22954 28905 ft 456 kts 57°
2026-04-21 01:44 -40.47772 -70.19613 29263 ft 459 kts 57°
2026-04-21 01:44 -40.45847 -70.16259 29650 ft 461 kts 57°
2026-04-21 01:44 -40.43912 -70.12889 30011 ft 463 kts 57°
2026-04-21 01:44 -40.41969 -70.09503 30322 ft 466 kts 58°
2026-04-21 01:45 -40.40011 -70.06097 30641 ft 467 kts 57°
2026-04-21 01:45 -40.38054 -70.02706 31068 ft 466 kts 57°
2026-04-21 01:45 -40.36100 -69.99326 31480 ft 465 kts 57°
2026-04-21 01:45 -40.34152 -69.95953 31910 ft 463 kts 57°
2026-04-21 01:46 -40.32207 -69.92588 32339 ft 462 kts 58°
2026-04-21 01:46 -40.30267 -69.89232 32790 ft 461 kts 58°
2026-04-21 01:46 -40.28337 -69.85892 33267 ft 460 kts 58°
2026-04-21 01:46 -40.26411 -69.82564 33771 ft 456 kts 58°
2026-04-21 01:47 -40.24495 -69.79261 34274 ft 454 kts 58°
2026-04-21 01:47 -40.22588 -69.75978 34693 ft 452 kts 58°
2026-04-21 01:47 -40.20709 -69.72750 35042 ft 451 kts 58°
2026-04-21 01:47 -40.18812 -69.69490 35379 ft 450 kts 58°
2026-04-21 01:48 -40.16913 -69.66231 35708 ft 450 kts 58°
2026-04-21 01:48 -40.15012 -69.62974 36024 ft 450 kts 58°
2026-04-21 01:48 -40.13116 -69.59727 36319 ft 450 kts 58°
2026-04-21 01:48 -40.11219 -69.56480 36613 ft 449 kts 57°
2026-04-21 01:49 -40.09326 -69.53241 36900 ft 449 kts 57°
2026-04-21 01:49 -40.07427 -69.49992 37177 ft 449 kts 57°
2026-04-21 01:49 -40.03611 -69.43469 37220 ft 454 kts 57°
2026-04-21 01:50 -39.99757 -69.36918 37223 ft 455 kts 57°
2026-04-21 01:50 -39.95899 -69.30373 37223 ft 455 kts 57°
2026-04-21 01:51 -39.92037 -69.23828 37223 ft 455 kts 57°
2026-04-21 01:51 -39.88203 -69.17332 37245 ft 455 kts 56°
2026-04-21 01:52 -39.82399 -69.07535 37238 ft 456 kts 56°
2026-04-21 01:53 -39.78521 -69.01014 37231 ft 456 kts 56°
2026-04-21 01:53 -39.74635 -68.94483 37231 ft 457 kts 56°
2026-04-21 01:54 -39.70738 -68.87957 37233 ft 457 kts 56°
2026-04-21 01:54 -39.66833 -68.81439 37251 ft 457 kts 55°
2026-04-21 01:55 -39.62929 -68.74922 37242 ft 457 kts 55°
2026-04-21 01:55 -39.59023 -68.68408 37241 ft 457 kts 54°
2026-04-21 01:56 -39.55107 -68.61910 37240 ft 457 kts 54°
2026-04-21 01:56 -39.51216 -68.55463 37246 ft 457 kts 54°
2026-04-21 01:57 -39.47285 -68.48969 37248 ft 458 kts 53°
2026-04-21 01:57 -39.43367 -68.42488 37251 ft 458 kts 53°
2026-04-21 01:58 -39.39441 -68.36004 37247 ft 457 kts 53°
2026-04-21 01:58 -39.35509 -68.29545 37243 ft 457 kts 53°
2026-04-21 01:59 -39.31576 -68.23082 37234 ft 457 kts 53°
2026-04-21 01:59 -39.27640 -68.16636 37234 ft 457 kts 53°
2026-04-21 02:00 -39.23696 -68.10205 37216 ft 458 kts 53°
2026-04-21 02:00 -39.19740 -68.03756 37209 ft 459 kts 52°
2026-04-21 02:01 -39.15775 -67.97294 37206 ft 460 kts 52°
2026-04-21 02:01 -39.11824 -67.90860 37209 ft 461 kts 52°
2026-04-21 02:02 -39.07829 -67.84384 37214 ft 461 kts 52°
2026-04-21 02:02 -39.03831 -67.77925 37221 ft 462 kts 52°
2026-04-21 02:03 -38.99828 -67.71459 37228 ft 462 kts 52°
2026-04-21 02:03 -38.95824 -67.65006 37229 ft 462 kts 52°
2026-04-21 02:04 -38.91806 -67.58549 37238 ft 462 kts 52°
2026-04-21 02:04 -38.87795 -67.52114 37233 ft 462 kts 51°
2026-04-21 02:05 -38.83779 -67.45670 37238 ft 462 kts 51°
2026-04-21 02:05 -38.79758 -67.39242 37244 ft 462 kts 51°
2026-04-21 02:06 -38.75732 -67.32822 37249 ft 462 kts 51°
2026-04-21 02:06 -38.71705 -67.26415 37241 ft 462 kts 51°
2026-04-21 02:07 -38.67682 -67.20009 37245 ft 462 kts 50°
2026-04-21 02:07 -38.63681 -67.13649 37247 ft 461 kts 49°
2026-04-21 02:08 -38.59646 -67.07275 37236 ft 461 kts 49°
2026-04-21 02:08 -38.55605 -67.00891 37235 ft 462 kts 49°
2026-04-21 02:09 -38.51554 -66.94516 37245 ft 462 kts 49°
2026-04-21 02:09 -38.47499 -66.88141 37244 ft 462 kts 48°
2026-04-21 02:10 -38.43441 -66.81771 37248 ft 462 kts 48°
2026-04-21 02:10 -38.39384 -66.75414 37248 ft 462 kts 48°
2026-04-21 02:11 -38.35327 -66.69057 37246 ft 462 kts 48°
2026-04-21 02:11 -38.31879 -66.62114 37248 ft 466 kts 59°
2026-04-21 02:12 -38.28825 -66.54833 37235 ft 466 kts 59°
2026-04-21 02:12 -38.25754 -66.47556 37239 ft 467 kts 59°
2026-04-21 02:13 -38.22666 -66.40274 37224 ft 468 kts 58°
2026-04-21 02:13 -38.19572 -66.32978 37225 ft 469 kts 58°
2026-04-21 02:14 -38.16469 -66.25672 37230 ft 470 kts 58°
2026-04-21 02:14 -38.13360 -66.18364 37213 ft 471 kts 58°
2026-04-21 02:15 -38.10257 -66.11080 37227 ft 472 kts 58°
2026-04-21 02:15 -38.07120 -66.03741 37235 ft 473 kts 58°
2026-04-21 02:16 -38.03975 -65.96401 37235 ft 474 kts 58°
2026-04-21 02:16 -38.00820 -65.89065 37224 ft 474 kts 57°
2026-04-21 02:17 -37.97651 -65.81712 37232 ft 476 kts 57°
2026-04-21 02:17 -37.94475 -65.74344 37241 ft 476 kts 57°
2026-04-21 02:18 -37.91283 -65.66987 37244 ft 477 kts 57°
2026-04-21 02:18 -37.88076 -65.59616 37235 ft 477 kts 56°
2026-04-21 02:19 -37.84874 -65.52255 37246 ft 478 kts 56°
2026-04-21 02:19 -37.81667 -65.44883 37237 ft 478 kts 56°
2026-04-21 02:20 -37.78467 -65.37559 37239 ft 479 kts 56°
2026-04-21 02:20 -37.75234 -65.30180 37245 ft 480 kts 56°
2026-04-21 02:21 -37.71997 -65.22810 37231 ft 480 kts 55°
2026-04-21 02:21 -37.68752 -65.15417 37239 ft 481 kts 55°
2026-04-21 02:22 -37.65506 -65.08022 37251 ft 482 kts 55°
2026-04-21 02:22 -37.62250 -65.00634 37249 ft 482 kts 55°
2026-04-21 02:23 -37.58976 -64.93252 37235 ft 482 kts 55°
2026-04-21 02:23 -37.55699 -64.85884 37245 ft 482 kts 55°
2026-04-21 02:24 -37.52438 -64.78545 37245 ft 482 kts 55°
2026-04-21 02:24 -37.49159 -64.71179 37249 ft 482 kts 55°
2026-04-21 02:25 -37.45873 -64.63814 37248 ft 482 kts 55°
2026-04-21 02:25 -37.42579 -64.56455 37243 ft 482 kts 55°
2026-04-21 02:26 -37.39277 -64.49107 37246 ft 482 kts 55°
2026-04-21 02:26 -37.35978 -64.41771 37220 ft 482 kts 54°
2026-04-21 02:27 -37.32655 -64.34429 37182 ft 483 kts 54°
2026-04-21 02:27 -37.29309 -64.27108 37211 ft 483 kts 53°
2026-04-21 02:28 -37.25952 -64.19783 37217 ft 484 kts 53°
2026-04-21 02:28 -37.22589 -64.12459 37225 ft 484 kts 53°
2026-04-21 02:29 -37.19229 -64.05148 37220 ft 484 kts 53°
2026-04-21 02:29 -37.16430 -63.99067 37208 ft 484 kts 53°
2026-04-21 02:30 -37.12503 -63.90577 37218 ft 484 kts 53°
2026-04-21 02:30 -37.09669 -63.84461 37217 ft 484 kts 53°
2026-04-21 02:31 -37.05737 -63.75989 37218 ft 484 kts 53°
2026-04-21 02:31 -37.02925 -63.69936 37200 ft 484 kts 53°
2026-04-21 02:32 -36.99514 -63.62612 37204 ft 484 kts 53°
2026-04-21 02:32 -36.96142 -63.55388 37206 ft 484 kts 53°
2026-04-21 02:33 -36.92744 -63.48120 37183 ft 484 kts 52°
2026-04-21 02:33 -36.89337 -63.40869 37159 ft 484 kts 52°
2026-04-21 02:34 -36.85920 -63.33607 37155 ft 485 kts 52°
2026-04-21 02:34 -36.82494 -63.26332 37184 ft 486 kts 52°
2026-04-21 02:35 -36.79067 -63.19058 37185 ft 486 kts 52°
2026-04-21 02:35 -36.75632 -63.11794 37154 ft 486 kts 52°
2026-04-21 02:36 -36.72212 -63.04585 37166 ft 486 kts 51°
2026-04-21 02:36 -36.68762 -62.97330 37172 ft 487 kts 51°
2026-04-21 02:37 -36.65305 -62.90072 37179 ft 487 kts 51°
2026-04-21 02:37 -36.61848 -62.82822 37179 ft 487 kts 51°
2026-04-21 02:38 -36.58380 -62.75572 37159 ft 487 kts 51°
2026-04-21 02:38 -36.54908 -62.68345 37168 ft 487 kts 51°
2026-04-21 02:39 -36.51429 -62.61119 37170 ft 487 kts 51°
2026-04-21 02:39 -36.47952 -62.53903 37151 ft 486 kts 51°
2026-04-21 02:40 -36.44467 -62.46694 37135 ft 486 kts 51°
2026-04-21 02:40 -36.40979 -62.39494 37149 ft 486 kts 51°
2026-04-21 02:41 -36.37512 -62.32324 37156 ft 487 kts 51°
2026-04-21 02:41 -36.34028 -62.25125 37159 ft 486 kts 51°
2026-04-21 02:42 -36.30533 -62.17940 37146 ft 486 kts 50°
2026-04-21 02:42 -36.27040 -62.10778 37158 ft 485 kts 50°
2026-04-21 02:43 -36.23539 -62.03617 37164 ft 485 kts 50°
2026-04-21 02:43 -36.20059 -61.96503 37155 ft 484 kts 50°
2026-04-21 02:44 -36.16558 -61.89377 37132 ft 484 kts 50°
2026-04-21 02:44 -36.13055 -61.82264 37146 ft 484 kts 50°
2026-04-21 02:45 -36.09559 -61.75173 37151 ft 483 kts 50°
2026-04-21 02:45 -36.06094 -61.68120 37151 ft 483 kts 50°
2026-04-21 02:46 -36.02597 -61.61034 37111 ft 483 kts 50°
2026-04-21 02:46 -35.99098 -61.53956 37113 ft 483 kts 49°
2026-04-21 02:47 -35.95591 -61.46867 37124 ft 484 kts 49°
2026-04-21 02:47 -35.92074 -61.39785 37130 ft 484 kts 49°
2026-04-21 02:48 -35.88540 -61.32709 37111 ft 484 kts 49°
2026-04-21 02:48 -35.85031 -61.25622 37132 ft 485 kts 49°
2026-04-21 02:49 -35.81532 -61.18516 37135 ft 484 kts 49°
2026-04-21 02:49 -35.78028 -61.11431 37136 ft 484 kts 49°
2026-04-21 02:50 -35.74543 -61.04409 37121 ft 484 kts 49°
2026-04-21 02:50 -35.71032 -60.97354 37113 ft 484 kts 49°
2026-04-21 02:51 -35.67515 -60.90297 37118 ft 484 kts 49°
2026-04-21 02:51 -35.63994 -60.83248 37113 ft 484 kts 49°
2026-04-21 02:52 -35.60463 -60.76203 37117 ft 484 kts 49°
2026-04-21 02:52 -35.56927 -60.69162 37102 ft 484 kts 48°
2026-04-21 02:53 -35.53387 -60.62132 37077 ft 485 kts 48°
2026-04-21 02:53 -35.49823 -60.55067 37053 ft 487 kts 48°
2026-04-21 02:53 -35.48040 -60.51536 36554 ft 489 kts 49°
2026-04-21 02:54 -35.46260 -60.48013 35768 ft 494 kts 49°
2026-04-21 02:54 -35.44419 -60.44370 34931 ft 498 kts 49°
2026-04-21 02:54 -35.42585 -60.40744 34094 ft 503 kts 49°
2026-04-21 02:54 -35.40755 -60.37115 33528 ft 498 kts 49°
2026-04-21 02:55 -35.38961 -60.33555 32920 ft 495 kts 50°
2026-04-21 02:55 -35.37160 -60.29987 32343 ft 491 kts 50°
2026-04-21 02:55 -35.35368 -60.26449 31753 ft 487 kts 50°
2026-04-21 02:55 -35.33586 -60.22939 31175 ft 483 kts 50°
2026-04-21 02:56 -35.31816 -60.19459 30681 ft 478 kts 50°
2026-04-21 02:56 -35.28332 -60.12618 29604 ft 466 kts 50°
2026-04-21 02:56 -35.26629 -60.09277 28956 ft 462 kts 50°
2026-04-21 02:57 -35.24925 -60.05948 28349 ft 458 kts 50°
2026-04-21 02:57 -35.23244 -60.02664 27732 ft 454 kts 50°
2026-04-21 02:57 -35.21573 -59.99402 27210 ft 449 kts 50°
2026-04-21 02:57 -35.19927 -59.96190 26706 ft 443 kts 50°
2026-04-21 02:58 -35.18299 -59.93018 26214 ft 438 kts 50°
2026-04-21 02:58 -35.16686 -59.89881 25729 ft 433 kts 51°
2026-04-21 02:58 -35.15092 -59.86784 25256 ft 428 kts 51°
2026-04-21 02:58 -35.13514 -59.83718 24810 ft 423 kts 51°
2026-04-21 02:59 -35.11953 -59.80691 24351 ft 420 kts 51°
2026-04-21 02:59 -35.10401 -59.77683 23884 ft 417 kts 51°
2026-04-21 02:59 -35.08855 -59.74689 23350 ft 415 kts 51°
2026-04-21 02:59 -35.07344 -59.71764 22884 ft 411 kts 52°
2026-04-21 03:00 -35.05807 -59.68790 22403 ft 407 kts 52°
2026-04-21 03:00 -35.04320 -59.65915 21909 ft 404 kts 52°
2026-04-21 03:00 -35.02822 -59.63020 21417 ft 401 kts 52°
2026-04-21 03:00 -35.01323 -59.60171 20944 ft 397 kts 51°
2026-04-21 03:01 -34.99803 -59.57378 20464 ft 393 kts 51°
2026-04-21 03:01 -34.98278 -59.54624 19986 ft 390 kts 51°
2026-04-21 03:01 -34.96762 -59.51900 19512 ft 388 kts 52°
2026-04-21 03:01 -34.95254 -59.49190 19040 ft 385 kts 52°
2026-04-21 03:02 -34.93749 -59.46479 18560 ft 383 kts 52°
2026-04-21 03:02 -34.92258 -59.43783 18045 ft 381 kts 52°
2026-04-21 03:02 -34.90809 -59.41153 17579 ft 377 kts 53°
2026-04-21 03:02 -34.89353 -59.38510 17098 ft 374 kts 53°
2026-04-21 03:03 -34.87913 -59.35895 16625 ft 371 kts 53°
2026-04-21 03:03 -34.86480 -59.33298 16168 ft 368 kts 53°
2026-04-21 03:03 -34.85058 -59.30721 15680 ft 365 kts 53°
2026-04-21 03:03 -34.83644 -59.28161 15225 ft 363 kts 53°
2026-04-21 03:04 -34.82237 -59.25621 14762 ft 361 kts 54°
2026-04-21 03:04 -34.80839 -59.23101 14295 ft 359 kts 54°
2026-04-21 03:04 -34.79443 -59.20581 13825 ft 358 kts 54°
2026-04-21 03:04 -34.78057 -59.18076 13316 ft 356 kts 54°
2026-04-21 03:05 -34.76679 -59.15586 12865 ft 353 kts 54°
2026-04-21 03:05 -34.75310 -59.13122 12411 ft 351 kts 54°
2026-04-21 03:05 -34.73946 -59.10671 11965 ft 348 kts 54°
2026-04-21 03:05 -34.72595 -59.08241 11498 ft 346 kts 54°
2026-04-21 03:06 -34.71247 -59.05822 11052 ft 344 kts 54°
2026-04-21 03:06 -34.69906 -59.03417 10604 ft 343 kts 54°
2026-04-21 03:06 -34.68592 -59.01059 10258 ft 338 kts 54°
2026-04-21 03:06 -34.67299 -58.98741 10137 ft 326 kts 54°
2026-04-21 03:07 -34.66050 -58.96505 10018 ft 314 kts 54°
2026-04-21 03:07 -34.64841 -58.94341 9851 ft 306 kts 54°
2026-04-21 03:07 -34.63654 -58.92219 9403 ft 300 kts 54°
2026-04-21 03:07 -34.62488 -58.90134 8776 ft 297 kts 54°
2026-04-21 03:08 -34.61334 -58.88073 8203 ft 293 kts 54°
2026-04-21 03:08 -34.60199 -58.86044 7623 ft 288 kts 53°
2026-04-21 03:08 -34.59081 -58.84043 7074 ft 284 kts 54°
2026-04-21 03:08 -34.57992 -58.82098 6541 ft 280 kts 54°
2026-04-21 03:09 -34.56907 -58.80162 5975 ft 275 kts 54°
2026-04-21 03:09 -34.55844 -58.78259 5459 ft 269 kts 55°
2026-04-21 03:09 -34.54826 -58.76364 4901 ft 266 kts 56°
2026-04-21 03:09 -34.53843 -58.74492 4407 ft 260 kts 56°
2026-04-21 03:10 -34.52883 -58.72654 3954 ft 256 kts 56°
2026-04-21 03:10 -34.51949 -58.70862 3726 ft 245 kts 56°
2026-04-21 03:10 -34.51059 -58.69157 3658 ft 233 kts 56°
2026-04-21 03:10 -34.50207 -58.67533 3539 ft 224 kts 56°
2026-04-21 03:11 -34.49384 -58.65971 3419 ft 215 kts 56°
2026-04-21 03:11 -34.48599 -58.64482 3317 ft 205 kts 56°
2026-04-21 03:11 -34.47834 -58.63034 3224 ft 202 kts 56°
2026-04-21 03:11 -34.47078 -58.61602 3134 ft 201 kts 55°
2026-04-21 03:12 -34.46456 -58.60089 3042 ft 203 kts 76°
2026-04-21 03:12 -34.46581 -58.58408 2983 ft 203 kts 111°
2026-04-21 03:12 -34.47319 -58.56961 2846 ft 198 kts 119°
2026-04-21 03:12 -34.48072 -58.55616 2595 ft 192 kts 119°
2026-04-21 03:13 -34.48812 -58.54297 2352 ft 186 kts 119°
2026-04-21 03:13 -34.49517 -58.53040 2106 ft 174 kts 118°
2026-04-21 03:13 -34.50164 -58.51890 1909 ft 154 kts 117°
2026-04-21 03:13 -34.50737 -58.50865 1699 ft 142 kts 117°
2026-04-21 03:14 -34.51281 -58.49890 1504 ft 138 kts 117°
2026-04-21 03:14 -34.51815 -58.48934 1327 ft 135 kts 117°
2026-04-21 03:14 -34.52340 -58.47994 1148 ft 134 kts 118°
2026-04-21 03:14 -34.52857 -58.47069 969 ft 130 kts 116°
2026-04-21 03:15 -34.53355 -58.46179 796 ft 126 kts 117°
2026-04-21 03:15 -34.53845 -58.45300 626 ft 126 kts 120°
2026-04-21 03:15 -34.54328 -58.44435 408 ft 124 kts 121°
2026-04-21 03:15 -34.54823 -58.43566 273 ft 127 kts 120°
2026-04-21 03:16 -34.55316 -58.42676 87 ft 127 kts 122°
2026-04-21 03:16 -34.55779 -58.41837 29 ft 102 kts 125°
2026-04-21 03:16 -34.56018 -58.41411 26 ft 31 kts 124°
2026-04-21 03:16 -34.56130 -58.41210 28 ft 26 kts 124°
2026-04-21 03:17 -34.56192 -58.41074 27 ft 12 kts 84°
2026-04-21 03:17 -34.56162 -58.41003 25 ft 9 kts 60°
2026-04-21 03:17 -34.56116 -58.40994 25 ft 8 kts 323°
2026-04-21 03:17 -34.56097 -58.41019 28 ft 3 kts 305°
2026-04-21 03:18 -34.56084 -58.41043 27 ft 4 kts 304°
2026-04-21 03:18 -34.56057 -58.41087 26 ft 9 kts 307°
2026-04-21 03:18 -34.56033 -58.41127 30 ft 9 kts 307°
2026-04-21 03:18 -34.55980 -58.41211 27 ft 10 kts 307°
2026-04-21 03:19 -34.55953 -58.41255 29 ft 9 kts 306°
2026-04-21 03:19 -34.55890 -58.41296 28 ft 8 kts 24°
2026-04-21 03:19 -34.55837 -58.41286 29 ft 8 kts 327°
2026-04-21 03:19 -34.55805 -58.41341 28 ft 7 kts 304°
2026-04-21 03:20 -34.55777 -58.41393 28 ft 7 kts 303°
2026-04-21 03:20 -34.55752 -58.41441 27 ft 6 kts 299°
2026-04-21 03:20 -34.55731 -58.41456 27 ft 5 kts 351°
2026-04-21 03:20 -34.55715 -58.41451 31 ft 0 kts 17°
2026-04-21 03:21 -34.55711 -58.41449 31 ft 1 kts 17°
2026-04-21 03:21 -34.55705 -58.41447 31 ft 1 kts 17°
2026-04-21 03:21 -34.55702 -58.41446 25 ft 0 kts 18°